Year,Month,Day,Hour,Minute,Value (Times are PST for windspeed in km/hr)
2014,10,22,00,00,43.10
2014,10,22,00,01,33.80
2014,10,22,00,02,31.90
2014,10,22,00,03,34.90
2014,10,22,00,04,28.60
2014,10,22,00,05,32.50
2014,10,22,00,06,36.40
2014,10,22,00,07,30.90
2014,10,22,00,08,37.00
2014,10,22,00,09,37.10
2014,10,22,00,10,33.20
2014,10,22,00,11,29.90
2014,10,22,00,12,31.40
2014,10,22,00,13,32.00
2014,10,22,00,14,37.30
2014,10,22,00,15,28.60
2014,10,22,00,16,26.20
2014,10,22,00,17,40.70
2014,10,22,00,18,34.50
2014,10,22,00,19,31.60
2014,10,22,00,20,30.70
2014,10,22,00,21,39.30
2014,10,22,00,22,39.50
2014,10,22,00,23,22.90
2014,10,22,00,24,22.40
2014,10,22,00,25,28.20
2014,10,22,00,26,23.00
2014,10,22,00,27,31.60
2014,10,22,00,28,28.30
2014,10,22,00,29,31.50
2014,10,22,00,30,29.50
2014,10,22,00,31,24.40
2014,10,22,00,32,24.70
2014,10,22,00,33,24.30
2014,10,22,00,34,28.10
2014,10,22,00,35,24.40
2014,10,22,00,36,32.20
2014,10,22,00,37,32.80
2014,10,22,00,38,33.10
2014,10,22,00,39,27.20
2014,10,22,00,40,24.00
2014,10,22,00,41,29.60
2014,10,22,00,42,30.30
2014,10,22,00,43,29.20
2014,10,22,00,44,33.00
2014,10,22,00,45,30.70
2014,10,22,00,46,26.90
2014,10,22,00,47,30.20
2014,10,22,00,48,39.90
2014,10,22,00,49,29.90
2014,10,22,00,50,35.50
2014,10,22,00,51,34.80
2014,10,22,00,52,37.70
2014,10,22,00,53,32.30
2014,10,22,00,54,31.10
2014,10,22,00,55,30.60
2014,10,22,00,56,29.80
2014,10,22,00,57,38.20
2014,10,22,00,58,28.30
2014,10,22,00,59,29.50
2014,10,22,01,00,27.60
2014,10,22,01,01,34.00
2014,10,22,01,02,26.70
2014,10,22,01,03,27.40
2014,10,22,01,04,26.20
2014,10,22,01,05,35.50
2014,10,22,01,06,30.30
2014,10,22,01,07,30.20
2014,10,22,01,08,27.00
2014,10,22,01,09,31.40
2014,10,22,01,10,23.50
2014,10,22,01,11,36.20
2014,10,22,01,12,32.40
2014,10,22,01,13,24.90
2014,10,22,01,14,38.30
2014,10,22,01,15,36.40
2014,10,22,01,16,29.80
2014,10,22,01,17,32.30
2014,10,22,01,18,34.30
2014,10,22,01,19,28.70
2014,10,22,01,20,29.40
2014,10,22,01,21,30.40
2014,10,22,01,22,28.10
2014,10,22,01,23,31.50
2014,10,22,01,24,29.90
2014,10,22,01,25,25.70
2014,10,22,01,26,31.50
2014,10,22,01,27,24.40
2014,10,22,01,28,25.80
2014,10,22,01,29,30.00
2014,10,22,01,30,24.10
2014,10,22,01,31,31.00
2014,10,22,01,32,26.20
2014,10,22,01,33,34.00
2014,10,22,01,34,30.60
2014,10,22,01,35,25.40
2014,10,22,01,36,30.00
2014,10,22,01,37,35.90
2014,10,22,01,38,25.40
2014,10,22,01,39,30.30
2014,10,22,01,40,38.10
2014,10,22,01,41,25.10
2014,10,22,01,42,21.00
2014,10,22,01,43,27.90
2014,10,22,01,44,26.20
2014,10,22,01,45,31.90
2014,10,22,01,46,27.40
2014,10,22,01,47,26.60
2014,10,22,01,48,23.80
2014,10,22,01,49,25.80
2014,10,22,01,50,25.80
2014,10,22,01,51,19.50
2014,10,22,01,52,25.70
2014,10,22,01,53,23.10
2014,10,22,01,54,21.10
2014,10,22,01,55,22.90
2014,10,22,01,56,21.30
2014,10,22,01,57,29.50
2014,10,22,01,58,24.00
2014,10,22,01,59,25.00
2014,10,22,02,00,21.20
2014,10,22,02,01,25.80
2014,10,22,02,02,22.10
2014,10,22,02,03,24.20
2014,10,22,02,04,21.20
2014,10,22,02,05,24.20
2014,10,22,02,06,21.30
2014,10,22,02,07,21.80
2014,10,22,02,08,27.00
2014,10,22,02,09,29.60
2014,10,22,02,10,26.10
2014,10,22,02,11,27.80
2014,10,22,02,12,22.00
2014,10,22,02,13,26.40
2014,10,22,02,14,28.20
2014,10,22,02,15,26.00
2014,10,22,02,16,18.00
2014,10,22,02,17,18.30
2014,10,22,02,18,23.30
2014,10,22,02,19,21.20
2014,10,22,02,20,22.50
2014,10,22,02,21,28.60
2014,10,22,02,22,21.70
2014,10,22,02,23,25.10
2014,10,22,02,24,17.10
2014,10,22,02,25,20.40
2014,10,22,02,26,24.20
2014,10,22,02,27,20.00
2014,10,22,02,28,19.30
2014,10,22,02,29,21.10
2014,10,22,02,30,23.70
2014,10,22,02,31,20.30
2014,10,22,02,32,18.80
2014,10,22,02,33,19.10
2014,10,22,02,34,17.20
2014,10,22,02,35,14.50
2014,10,22,02,36,13.60
2014,10,22,02,37,23.50
2014,10,22,02,38,20.00
2014,10,22,02,39,19.70
2014,10,22,02,40,26.10
2014,10,22,02,41,19.30
2014,10,22,02,42,16.60
2014,10,22,02,43,12.80
2014,10,22,02,44,19.80
2014,10,22,02,45,11.90
2014,10,22,02,46,10.90
2014,10,22,02,47,18.10
2014,10,22,02,48,20.00
2014,10,22,02,49,16.60
2014,10,22,02,50,19.20
2014,10,22,02,51,25.30
2014,10,22,02,52,17.20
2014,10,22,02,53,19.50
2014,10,22,02,54,20.10
2014,10,22,02,55,17.80
2014,10,22,02,56,9.70
2014,10,22,02,57,11.40
2014,10,22,02,58,17.10
2014,10,22,02,59,14.60
2014,10,22,03,00,15.20
2014,10,22,03,01,10.60
2014,10,22,03,02,9.20
2014,10,22,03,03,14.00
2014,10,22,03,04,24.20
2014,10,22,03,05,14.30
2014,10,22,03,06,13.60
2014,10,22,03,07,12.80
2014,10,22,03,08,11.10
2014,10,22,03,09,15.00
2014,10,22,03,10,14.70
2014,10,22,03,11,12.10
2014,10,22,03,12,14.60
2014,10,22,03,13,15.50
2014,10,22,03,14,14.30
2014,10,22,03,15,14.40
2014,10,22,03,16,14.30
2014,10,22,03,17,14.80
2014,10,22,03,18,14.10
2014,10,22,03,19,15.00
2014,10,22,03,20,10.20
2014,10,22,03,21,8.50
2014,10,22,03,22,11.00
2014,10,22,03,23,12.60
2014,10,22,03,24,8.60
2014,10,22,03,25,10.60
2014,10,22,03,26,11.30
2014,10,22,03,27,8.90
2014,10,22,03,28,12.90
2014,10,22,03,29,5.30
2014,10,22,03,30,7.70
2014,10,22,03,31,12.20
2014,10,22,03,32,7.20
2014,10,22,03,33,7.90
2014,10,22,03,34,7.20
2014,10,22,03,35,6.20
2014,10,22,03,36,3.10
2014,10,22,03,37,0.00
2014,10,22,03,38,1.90
2014,10,22,03,39,1.40
2014,10,22,03,40,2.50
2014,10,22,03,41,0.50
2014,10,22,03,42,1.80
2014,10,22,03,43,0.60
2014,10,22,03,44,1.50
2014,10,22,03,45,0.10
2014,10,22,03,46,0.40
2014,10,22,03,47,0.30
2014,10,22,03,48,2.60
2014,10,22,03,49,3.00
2014,10,22,03,50,2.80
2014,10,22,03,51,0.00
2014,10,22,03,52,0.00
2014,10,22,03,53,0.00
2014,10,22,03,54,0.00
2014,10,22,03,55,0.60
2014,10,22,03,56,0.00
2014,10,22,03,57,0.00
2014,10,22,03,58,0.00
2014,10,22,03,59,0.00
2014,10,22,04,00,0.00
2014,10,22,04,01,0.00
2014,10,22,04,02,0.00
2014,10,22,04,03,0.10
2014,10,22,04,04,2.10
2014,10,22,04,05,1.80
2014,10,22,04,06,0.00
2014,10,22,04,07,0.90
2014,10,22,04,08,0.50
2014,10,22,04,09,0.10
2014,10,22,04,10,1.50
2014,10,22,04,11,3.50
2014,10,22,04,12,4.50
2014,10,22,04,13,1.50
2014,10,22,04,14,2.40
2014,10,22,04,15,0.40
2014,10,22,04,16,0.10
2014,10,22,04,17,2.50
2014,10,22,04,18,2.50
2014,10,22,04,19,3.40
2014,10,22,04,20,2.20
2014,10,22,04,21,0.10
2014,10,22,04,22,0.20
2014,10,22,04,23,0.40
2014,10,22,04,24,2.70
2014,10,22,04,25,3.60
2014,10,22,04,26,0.80
2014,10,22,04,27,1.60
2014,10,22,04,28,0.60
2014,10,22,04,29,0.70
2014,10,22,04,30,0.10
2014,10,22,04,31,0.00
2014,10,22,04,32,3.10
2014,10,22,04,33,0.30
2014,10,22,04,34,0.10
2014,10,22,04,35,0.00
2014,10,22,04,36,0.00
2014,10,22,04,37,0.00
2014,10,22,04,38,0.00
2014,10,22,04,39,0.00
2014,10,22,04,40,0.00
2014,10,22,04,41,0.10
2014,10,22,04,42,0.00
2014,10,22,04,43,0.00
2014,10,22,04,44,0.00
2014,10,22,04,45,0.00
2014,10,22,04,46,0.00
2014,10,22,04,47,0.00
2014,10,22,04,48,0.00
2014,10,22,04,49,0.00
2014,10,22,04,50,0.00
2014,10,22,04,51,0.00
2014,10,22,04,52,0.00
2014,10,22,04,53,0.00
2014,10,22,04,54,0.00
2014,10,22,04,55,0.00
2014,10,22,04,56,1.40
2014,10,22,04,57,0.70
2014,10,22,04,58,0.10
2014,10,22,04,59,0.20
2014,10,22,05,00,0.00
2014,10,22,05,01,0.20
2014,10,22,05,02,0.40
2014,10,22,05,03,0.00
2014,10,22,05,04,0.10
2014,10,22,05,05,0.00
2014,10,22,05,06,0.00
2014,10,22,05,07,0.00
2014,10,22,05,08,0.00
2014,10,22,05,09,0.00
2014,10,22,05,10,0.00
2014,10,22,05,11,0.00
2014,10,22,05,12,0.00
2014,10,22,05,13,0.00
2014,10,22,05,14,1.40
2014,10,22,05,15,0.60
2014,10,22,05,16,0.00
2014,10,22,05,17,0.00
2014,10,22,05,18,0.00
2014,10,22,05,19,1.30
2014,10,22,05,20,5.30
2014,10,22,05,21,6.30
2014,10,22,05,22,7.60
2014,10,22,05,23,5.10
2014,10,22,05,24,3.90
2014,10,22,05,25,0.60
2014,10,22,05,26,0.80
2014,10,22,05,27,2.60
2014,10,22,05,28,4.40
2014,10,22,05,29,3.90
2014,10,22,05,30,2.80
2014,10,22,05,31,4.30
2014,10,22,05,32,4.10
2014,10,22,05,33,2.90
2014,10,22,05,34,4.70
2014,10,22,05,35,1.40
2014,10,22,05,36,0.90
2014,10,22,05,37,1.30
2014,10,22,05,38,0.10
2014,10,22,05,39,0.00
2014,10,22,05,40,0.00
2014,10,22,05,41,0.60
2014,10,22,05,42,0.30
2014,10,22,05,43,1.20
2014,10,22,05,44,0.00
2014,10,22,05,45,0.50
2014,10,22,05,46,0.00
2014,10,22,05,47,0.00
2014,10,22,05,48,0.00
2014,10,22,05,49,0.00
2014,10,22,05,50,0.00
2014,10,22,05,51,0.00
2014,10,22,05,52,1.30
2014,10,22,05,53,1.30
2014,10,22,05,54,0.00
2014,10,22,05,55,0.00
2014,10,22,05,56,0.00
2014,10,22,05,57,0.00
2014,10,22,05,58,0.00
2014,10,22,05,59,0.00
2014,10,22,06,00,0.00
2014,10,22,06,01,0.00
2014,10,22,06,02,0.00
2014,10,22,06,03,0.00
2014,10,22,06,04,0.00
2014,10,22,06,05,0.00
2014,10,22,06,06,0.00
2014,10,22,06,07,0.00
2014,10,22,06,08,0.00
2014,10,22,06,09,0.00
2014,10,22,06,10,0.00
2014,10,22,06,11,0.00
2014,10,22,06,12,0.00
2014,10,22,06,13,0.00
2014,10,22,06,14,0.00
2014,10,22,06,15,0.00
2014,10,22,06,16,0.00
2014,10,22,06,17,0.00
2014,10,22,06,18,0.00
2014,10,22,06,19,0.00
2014,10,22,06,20,0.30
2014,10,22,06,21,0.00
2014,10,22,06,22,0.00
2014,10,22,06,23,0.00
2014,10,22,06,24,0.00
2014,10,22,06,25,0.00
2014,10,22,06,26,0.00
2014,10,22,06,27,0.00
2014,10,22,06,28,0.00
2014,10,22,06,29,0.00
2014,10,22,06,30,0.00
2014,10,22,06,31,0.00
2014,10,22,06,32,0.00
2014,10,22,06,33,0.00
2014,10,22,06,34,0.00
2014,10,22,06,35,0.00
2014,10,22,06,36,0.00
2014,10,22,06,37,0.00
2014,10,22,06,38,0.10
2014,10,22,06,39,0.00
2014,10,22,06,40,0.00
2014,10,22,06,41,0.00
2014,10,22,06,42,0.00
2014,10,22,06,43,0.00
2014,10,22,06,44,1.70
2014,10,22,06,45,2.50
2014,10,22,06,46,0.70
2014,10,22,06,47,0.60
2014,10,22,06,48,0.00
2014,10,22,06,49,0.00
2014,10,22,06,50,0.00
2014,10,22,06,51,0.00
2014,10,22,06,52,0.00
2014,10,22,06,53,0.00
2014,10,22,06,54,0.70
2014,10,22,06,55,0.20
2014,10,22,06,56,0.80
2014,10,22,06,57,0.70
2014,10,22,06,58,0.00
2014,10,22,06,59,0.00
2014,10,22,07,00,0.00
2014,10,22,07,01,0.70
2014,10,22,07,02,2.50
2014,10,22,07,03,2.50
2014,10,22,07,04,2.30
2014,10,22,07,05,2.30
2014,10,22,07,06,1.90
2014,10,22,07,07,0.10
2014,10,22,07,08,0.00
2014,10,22,07,09,0.00
2014,10,22,07,10,0.00
2014,10,22,07,11,0.00
2014,10,22,07,12,0.00
2014,10,22,07,13,0.00
2014,10,22,07,14,0.70
2014,10,22,07,15,1.00
2014,10,22,07,16,0.30
2014,10,22,07,17,0.00
2014,10,22,07,18,0.00
2014,10,22,07,19,0.00
2014,10,22,07,20,0.00
2014,10,22,07,21,0.00
2014,10,22,07,22,0.00
2014,10,22,07,23,0.00
2014,10,22,07,24,0.00
2014,10,22,07,25,0.00
2014,10,22,07,26,0.00
2014,10,22,07,27,0.00
2014,10,22,07,28,0.00
2014,10,22,07,29,0.00
2014,10,22,07,30,0.00
2014,10,22,07,31,0.00
2014,10,22,07,32,0.00
2014,10,22,07,33,0.30
2014,10,22,07,34,0.00
2014,10,22,07,35,0.00
2014,10,22,07,36,0.00
2014,10,22,07,37,0.00
2014,10,22,07,38,0.00
2014,10,22,07,39,0.00
2014,10,22,07,40,0.00
2014,10,22,07,41,0.00
2014,10,22,07,42,0.00
2014,10,22,07,43,0.00
2014,10,22,07,44,0.00
2014,10,22,07,45,0.00
2014,10,22,07,46,0.00
2014,10,22,07,47,0.00
2014,10,22,07,48,0.00
2014,10,22,07,49,0.00
2014,10,22,07,50,1.40
2014,10,22,07,51,2.70
2014,10,22,07,52,2.10
2014,10,22,07,53,1.90
2014,10,22,07,54,1.50
2014,10,22,07,55,0.00
2014,10,22,07,56,0.00
2014,10,22,07,57,0.00
2014,10,22,07,58,0.00
2014,10,22,07,59,0.00
2014,10,22,08,00,0.00
2014,10,22,08,01,0.00
2014,10,22,08,02,0.00
2014,10,22,08,03,0.00
2014,10,22,08,04,0.00
2014,10,22,08,05,0.00
2014,10,22,08,06,0.00
2014,10,22,08,07,0.00
2014,10,22,08,08,0.00
2014,10,22,08,09,0.00
2014,10,22,08,10,0.00
2014,10,22,08,11,1.10
2014,10,22,08,12,2.60
2014,10,22,08,13,3.00
2014,10,22,08,14,2.40
2014,10,22,08,15,0.80
2014,10,22,08,16,2.60
2014,10,22,08,17,1.80
2014,10,22,08,18,0.40
2014,10,22,08,19,1.90
2014,10,22,08,20,0.00
2014,10,22,08,21,0.20
2014,10,22,08,22,0.90
2014,10,22,08,23,0.20
2014,10,22,08,24,1.90
2014,10,22,08,25,1.30
2014,10,22,08,26,2.00
2014,10,22,08,27,1.90
2014,10,22,08,28,1.30
2014,10,22,08,29,0.60
2014,10,22,08,30,2.10
2014,10,22,08,31,2.90
2014,10,22,08,32,1.40
2014,10,22,08,33,1.40
2014,10,22,08,34,1.50
2014,10,22,08,35,0.10
2014,10,22,08,36,0.00
2014,10,22,08,37,0.90
2014,10,22,08,38,0.20
2014,10,22,08,39,0.00
2014,10,22,08,40,0.00
2014,10,22,08,41,0.00
2014,10,22,08,42,1.20
2014,10,22,08,43,0.40
2014,10,22,08,44,0.90
2014,10,22,08,45,0.60
2014,10,22,08,46,0.10
2014,10,22,08,47,0.00
2014,10,22,08,48,0.00
2014,10,22,08,49,0.00
2014,10,22,08,50,0.00
2014,10,22,08,51,0.00
2014,10,22,08,52,0.00
2014,10,22,08,53,0.00
2014,10,22,08,54,0.00
2014,10,22,08,55,0.00
2014,10,22,08,56,0.00
2014,10,22,08,57,0.00
2014,10,22,08,58,0.00
2014,10,22,08,59,0.00
2014,10,22,09,00,0.00
2014,10,22,09,01,0.60
2014,10,22,09,02,0.20
2014,10,22,09,03,0.80
2014,10,22,09,04,2.00
2014,10,22,09,05,2.30
2014,10,22,09,06,2.20
2014,10,22,09,07,0.00
2014,10,22,09,08,0.00
2014,10,22,09,09,0.00
2014,10,22,09,10,0.00
2014,10,22,09,11,0.00
2014,10,22,09,12,0.30
2014,10,22,09,13,0.20
2014,10,22,09,14,0.00
2014,10,22,09,15,0.00
2014,10,22,09,16,0.00
2014,10,22,09,17,0.00
2014,10,22,09,18,0.00
2014,10,22,09,19,0.00
2014,10,22,09,20,0.00
2014,10,22,09,21,0.70
2014,10,22,09,22,0.50
2014,10,22,09,23,0.00
2014,10,22,09,24,0.00
2014,10,22,09,25,0.00
2014,10,22,09,26,0.00
2014,10,22,09,27,0.80
2014,10,22,09,28,0.60
2014,10,22,09,29,0.10
2014,10,22,09,30,0.00
2014,10,22,09,31,0.20
2014,10,22,09,32,0.00
2014,10,22,09,33,0.20
2014,10,22,09,34,0.00
2014,10,22,09,35,0.00
2014,10,22,09,36,0.80
2014,10,22,09,37,0.10
2014,10,22,09,38,0.00
2014,10,22,09,39,0.50
2014,10,22,09,40,1.60
2014,10,22,09,41,3.30
2014,10,22,09,42,1.50
2014,10,22,09,43,4.20
2014,10,22,09,44,3.50
2014,10,22,09,45,4.30
2014,10,22,09,46,2.40
2014,10,22,09,47,2.10
2014,10,22,09,48,1.90
2014,10,22,09,49,0.20
2014,10,22,09,50,0.20
2014,10,22,09,51,0.00
2014,10,22,09,52,1.00
2014,10,22,09,53,1.30
2014,10,22,09,54,2.50
2014,10,22,09,55,1.10
2014,10,22,09,56,0.00
2014,10,22,09,57,0.00
2014,10,22,09,58,0.00
2014,10,22,09,59,0.00
2014,10,22,10,00,0.00
2014,10,22,10,01,0.10
2014,10,22,10,02,0.00
2014,10,22,10,03,0.00
2014,10,22,10,04,0.00
2014,10,22,10,05,1.00
2014,10,22,10,06,2.90
2014,10,22,10,07,3.90
2014,10,22,10,08,1.40
2014,10,22,10,09,3.50
2014,10,22,10,10,5.10
2014,10,22,10,11,2.00
2014,10,22,10,12,1.70
2014,10,22,10,13,3.60
2014,10,22,10,14,3.00
2014,10,22,10,15,0.40
2014,10,22,10,16,1.80
2014,10,22,10,17,1.90
2014,10,22,10,18,2.10
2014,10,22,10,19,2.00
2014,10,22,10,20,5.30
2014,10,22,10,21,6.60
2014,10,22,10,22,4.30
2014,10,22,10,23,4.20
2014,10,22,10,24,7.70
2014,10,22,10,25,6.10
2014,10,22,10,26,5.00
2014,10,22,10,27,6.00
2014,10,22,10,28,2.50
2014,10,22,10,29,0.00
2014,10,22,10,30,1.40
2014,10,22,10,31,0.80
2014,10,22,10,32,1.30
2014,10,22,10,33,3.10
2014,10,22,10,34,4.10
2014,10,22,10,35,3.70
2014,10,22,10,36,1.90
2014,10,22,10,37,0.20
2014,10,22,10,38,0.00
2014,10,22,10,39,0.00
2014,10,22,10,40,0.00
2014,10,22,10,41,0.60
2014,10,22,10,42,0.00
2014,10,22,10,43,2.80
2014,10,22,10,44,3.20
2014,10,22,10,45,5.60
2014,10,22,10,46,4.00
2014,10,22,10,47,4.50
2014,10,22,10,48,2.00
2014,10,22,10,49,4.00
2014,10,22,10,50,1.20
2014,10,22,10,51,2.90
2014,10,22,10,52,2.30
2014,10,22,10,53,1.50
2014,10,22,10,54,0.00
2014,10,22,10,55,2.40
2014,10,22,10,56,3.10
2014,10,22,10,57,0.00
2014,10,22,10,58,0.00
2014,10,22,10,59,0.30
2014,10,22,11,00,4.10
2014,10,22,11,01,4.00
2014,10,22,11,02,4.10
2014,10,22,11,03,0.60
2014,10,22,11,04,0.70
2014,10,22,11,05,0.00
2014,10,22,11,06,0.20
2014,10,22,11,07,0.00
2014,10,22,11,08,1.10
2014,10,22,11,09,2.50
2014,10,22,11,10,1.40
2014,10,22,11,11,1.40
2014,10,22,11,12,1.20
2014,10,22,11,13,0.00
2014,10,22,11,14,0.00
2014,10,22,11,15,0.40
2014,10,22,11,16,0.40
2014,10,22,11,17,0.00
2014,10,22,11,18,0.00
2014,10,22,11,19,0.00
2014,10,22,11,20,0.00
2014,10,22,11,21,0.00
2014,10,22,11,22,0.00
2014,10,22,11,23,0.00
2014,10,22,11,24,0.00
2014,10,22,11,25,0.00
2014,10,22,11,26,0.00
2014,10,22,11,27,0.00
2014,10,22,11,28,0.00
2014,10,22,11,29,0.00
2014,10,22,11,30,0.00
2014,10,22,11,31,0.00
2014,10,22,11,32,0.00
2014,10,22,11,33,0.00
2014,10,22,11,34,0.00
2014,10,22,11,35,0.00
2014,10,22,11,36,0.00
2014,10,22,11,37,0.00
2014,10,22,11,38,0.00
2014,10,22,11,39,0.00
2014,10,22,11,40,0.00
2014,10,22,11,41,0.10
2014,10,22,11,42,0.00
2014,10,22,11,43,0.00
2014,10,22,11,44,0.00
2014,10,22,11,45,0.00
2014,10,22,11,46,0.00
2014,10,22,11,47,0.20
2014,10,22,11,48,0.50
2014,10,22,11,49,0.00
2014,10,22,11,50,0.00
2014,10,22,11,51,0.00
2014,10,22,11,52,0.00
2014,10,22,11,53,0.00
2014,10,22,11,54,0.00
2014,10,22,11,55,0.00
2014,10,22,11,56,1.90
2014,10,22,11,57,1.50
2014,10,22,11,58,4.20
2014,10,22,11,59,5.20
2014,10,22,12,00,5.60
2014,10,22,12,01,4.60
2014,10,22,12,02,2.50
2014,10,22,12,03,2.50
2014,10,22,12,04,0.30
2014,10,22,12,05,2.50
2014,10,22,12,06,3.50
2014,10,22,12,07,2.10
2014,10,22,12,08,0.30
2014,10,22,12,09,0.20
2014,10,22,12,10,0.00
2014,10,22,12,11,0.40
2014,10,22,12,12,0.10
2014,10,22,12,13,1.50
2014,10,22,12,14,1.40
2014,10,22,12,15,4.10
2014,10,22,12,16,2.70
2014,10,22,12,17,2.30
2014,10,22,12,18,1.90
2014,10,22,12,19,0.20
2014,10,22,12,20,2.80
2014,10,22,12,21,0.30
2014,10,22,12,22,0.10
2014,10,22,12,23,0.00
2014,10,22,12,24,0.00
2014,10,22,12,25,0.00
2014,10,22,12,26,0.20
2014,10,22,12,27,0.10
2014,10,22,12,28,0.00
2014,10,22,12,29,0.90
2014,10,22,12,30,1.60
2014,10,22,12,31,3.00
2014,10,22,12,32,3.10
2014,10,22,12,33,1.40
2014,10,22,12,34,1.10
2014,10,22,12,35,0.50
2014,10,22,12,36,0.10
2014,10,22,12,37,0.00
2014,10,22,12,38,0.00
2014,10,22,12,39,0.30
2014,10,22,12,40,0.10
2014,10,22,12,41,0.00
2014,10,22,12,42,0.00
2014,10,22,12,43,1.60
2014,10,22,12,44,1.20
2014,10,22,12,45,0.10
2014,10,22,12,46,0.00
2014,10,22,12,47,0.00
2014,10,22,12,48,0.00
2014,10,22,12,49,0.00
2014,10,22,12,50,0.00
2014,10,22,12,51,0.00
2014,10,22,12,52,0.00
2014,10,22,12,53,0.00
2014,10,22,12,54,0.00
2014,10,22,12,55,0.00
2014,10,22,12,56,0.00
2014,10,22,12,57,0.00
2014,10,22,12,58,0.00
2014,10,22,12,59,0.00
2014,10,22,13,00,0.00
2014,10,22,13,01,0.00
2014,10,22,13,02,0.00
2014,10,22,13,03,1.40
2014,10,22,13,04,0.80
2014,10,22,13,05,2.10
2014,10,22,13,06,0.80
2014,10,22,13,07,0.20
2014,10,22,13,08,0.10
2014,10,22,13,09,0.00
2014,10,22,13,10,0.20
2014,10,22,13,11,0.00
2014,10,22,13,12,0.00
2014,10,22,13,13,0.00
2014,10,22,13,14,0.00
2014,10,22,13,15,0.00
2014,10,22,13,16,0.00
2014,10,22,13,17,0.00
2014,10,22,13,18,0.00
2014,10,22,13,19,0.00
2014,10,22,13,20,0.00
2014,10,22,13,21,0.00
2014,10,22,13,22,0.00
2014,10,22,13,23,0.00
2014,10,22,13,24,0.20
2014,10,22,13,25,0.10
2014,10,22,13,26,0.20
2014,10,22,13,27,0.00
2014,10,22,13,28,0.00
2014,10,22,13,29,0.00
2014,10,22,13,30,0.00
2014,10,22,13,31,0.50
2014,10,22,13,32,0.20
2014,10,22,13,33,0.00
2014,10,22,13,34,0.00
2014,10,22,13,35,0.00
2014,10,22,13,36,0.00
2014,10,22,13,37,0.20
2014,10,22,13,38,1.40
2014,10,22,13,39,1.30
2014,10,22,13,40,0.90
2014,10,22,13,41,2.40
2014,10,22,13,42,2.50
2014,10,22,13,43,2.10
2014,10,22,13,44,0.30
2014,10,22,13,45,0.00
2014,10,22,13,46,0.00
2014,10,22,13,47,0.00
2014,10,22,13,48,0.00
2014,10,22,13,49,0.00
2014,10,22,13,50,0.00
2014,10,22,13,51,0.00
2014,10,22,13,52,0.00
2014,10,22,13,53,0.00
2014,10,22,13,54,0.00
2014,10,22,13,55,0.00
2014,10,22,13,56,0.00
2014,10,22,13,57,0.00
2014,10,22,13,58,0.00
2014,10,22,13,59,0.00
2014,10,22,14,00,0.00
2014,10,22,14,01,0.00
2014,10,22,14,02,0.00
2014,10,22,14,03,0.00
2014,10,22,14,04,0.00
2014,10,22,14,05,0.00
2014,10,22,14,06,0.10
2014,10,22,14,07,0.00
2014,10,22,14,08,0.00
2014,10,22,14,09,0.00
2014,10,22,14,10,0.00
2014,10,22,14,11,0.00
2014,10,22,14,12,0.20
2014,10,22,14,13,0.60
2014,10,22,14,14,2.50
2014,10,22,14,15,3.20
2014,10,22,14,16,0.70
2014,10,22,14,17,1.20
2014,10,22,14,18,0.80
2014,10,22,14,19,0.50
2014,10,22,14,20,0.90
2014,10,22,14,21,0.00
2014,10,22,14,22,0.00
2014,10,22,14,23,0.00
2014,10,22,14,24,0.00
2014,10,22,14,25,0.00
2014,10,22,14,26,0.00
2014,10,22,14,27,0.00
2014,10,22,14,28,0.00
2014,10,22,14,29,0.00
2014,10,22,14,30,1.80
2014,10,22,14,31,3.10
2014,10,22,14,32,0.60
2014,10,22,14,33,0.80
2014,10,22,14,34,1.70
2014,10,22,14,35,0.10
2014,10,22,14,36,1.30
2014,10,22,14,37,0.20
2014,10,22,14,38,0.00
2014,10,22,14,39,0.90
2014,10,22,14,40,0.10
2014,10,22,14,41,0.00
2014,10,22,14,42,0.10
2014,10,22,14,43,0.00
2014,10,22,14,44,0.00
2014,10,22,14,45,0.30
2014,10,22,14,46,1.00
2014,10,22,14,47,0.20
2014,10,22,14,48,0.20
2014,10,22,14,49,0.60
2014,10,22,14,50,0.80
2014,10,22,14,51,1.80
2014,10,22,14,52,2.90
2014,10,22,14,53,3.60
2014,10,22,14,54,1.40
2014,10,22,14,55,5.10
2014,10,22,14,56,2.30
2014,10,22,14,57,4.30
2014,10,22,14,58,1.80
2014,10,22,14,59,0.60
2014,10,22,15,00,0.20
2014,10,22,15,01,0.90
2014,10,22,15,02,0.20
2014,10,22,15,03,1.50
2014,10,22,15,04,0.90
2014,10,22,15,05,0.20
2014,10,22,15,06,0.90
2014,10,22,15,07,3.80
2014,10,22,15,08,3.80
2014,10,22,15,09,3.20
2014,10,22,15,10,1.50
2014,10,22,15,11,3.00
2014,10,22,15,12,3.30
2014,10,22,15,13,3.10
2014,10,22,15,14,4.20
2014,10,22,15,15,0.60
2014,10,22,15,16,2.40
2014,10,22,15,17,4.30
2014,10,22,15,18,3.50
2014,10,22,15,19,1.60
2014,10,22,15,20,0.10
2014,10,22,15,21,2.50
2014,10,22,15,22,4.30
2014,10,22,15,23,3.10
2014,10,22,15,24,3.10
2014,10,22,15,25,1.40
2014,10,22,15,26,2.00
2014,10,22,15,27,3.80
2014,10,22,15,28,1.20
2014,10,22,15,29,4.70
2014,10,22,15,30,2.50
2014,10,22,15,31,0.60
2014,10,22,15,32,0.60
2014,10,22,15,33,2.70
2014,10,22,15,34,0.10
2014,10,22,15,35,0.20
2014,10,22,15,36,2.80
2014,10,22,15,37,2.90
2014,10,22,15,38,2.50
2014,10,22,15,39,1.90
2014,10,22,15,40,5.30
2014,10,22,15,41,4.10
2014,10,22,15,42,0.30
2014,10,22,15,43,0.00
2014,10,22,15,44,0.90
2014,10,22,15,45,0.00
2014,10,22,15,46,0.00
2014,10,22,15,47,0.00
2014,10,22,15,48,0.00
2014,10,22,15,49,0.00
2014,10,22,15,50,0.00
2014,10,22,15,51,0.10
2014,10,22,15,52,0.00
2014,10,22,15,53,0.00
2014,10,22,15,54,0.00
2014,10,22,15,55,0.30
2014,10,22,15,56,0.00
2014,10,22,15,57,0.50
2014,10,22,15,58,0.00
2014,10,22,15,59,0.00
2014,10,22,16,00,0.00
2014,10,22,16,01,0.00
2014,10,22,16,02,0.40
2014,10,22,16,03,0.20
2014,10,22,16,04,0.00
2014,10,22,16,05,0.00
2014,10,22,16,06,0.00
2014,10,22,16,07,0.00
2014,10,22,16,08,0.00
2014,10,22,16,09,0.00
2014,10,22,16,10,0.00
2014,10,22,16,11,0.00
2014,10,22,16,12,0.30
2014,10,22,16,13,1.10
2014,10,22,16,14,2.10
2014,10,22,16,15,1.80
2014,10,22,16,16,1.80
2014,10,22,16,17,2.20
2014,10,22,16,18,2.70
2014,10,22,16,19,2.60
2014,10,22,16,20,0.10
2014,10,22,16,21,2.70
2014,10,22,16,22,1.60
2014,10,22,16,23,1.00
2014,10,22,16,24,4.10
2014,10,22,16,25,3.80
2014,10,22,16,26,0.30
2014,10,22,16,27,1.40
2014,10,22,16,28,0.10
2014,10,22,16,29,0.20
2014,10,22,16,30,0.00
2014,10,22,16,31,0.00
2014,10,22,16,32,0.00
2014,10,22,16,33,0.00
2014,10,22,16,34,0.00
2014,10,22,16,35,0.00
2014,10,22,16,36,0.60
2014,10,22,16,37,0.10
2014,10,22,16,38,0.20
2014,10,22,16,39,0.80
2014,10,22,16,40,1.00
2014,10,22,16,41,0.00
2014,10,22,16,42,0.00
2014,10,22,16,43,0.00
2014,10,22,16,44,0.00
2014,10,22,16,45,0.00
2014,10,22,16,46,0.00
2014,10,22,16,47,0.00
2014,10,22,16,48,0.00
2014,10,22,16,49,0.00
2014,10,22,16,50,0.00
2014,10,22,16,51,0.00
2014,10,22,16,52,0.00
2014,10,22,16,53,0.00
2014,10,22,16,54,0.00
2014,10,22,16,55,0.00
2014,10,22,16,56,0.00
2014,10,22,16,57,0.00
2014,10,22,16,58,0.00
2014,10,22,16,59,0.00
2014,10,22,17,00,0.00
2014,10,22,17,01,0.00
2014,10,22,17,02,0.00
2014,10,22,17,03,0.00
2014,10,22,17,04,0.00
2014,10,22,17,05,0.00
2014,10,22,17,06,0.00
2014,10,22,17,07,0.00
2014,10,22,17,08,0.00
2014,10,22,17,09,0.00
2014,10,22,17,10,0.00
2014,10,22,17,11,0.00
2014,10,22,17,12,0.00
2014,10,22,17,13,0.00
2014,10,22,17,14,0.00
2014,10,22,17,15,0.00
2014,10,22,17,16,0.00
2014,10,22,17,17,0.00
2014,10,22,17,18,0.00
2014,10,22,17,19,0.00
2014,10,22,17,20,0.00
2014,10,22,17,21,0.00
2014,10,22,17,22,0.00
2014,10,22,17,23,0.00
2014,10,22,17,24,0.20
2014,10,22,17,25,0.00
2014,10,22,17,26,0.20
2014,10,22,17,27,0.00
2014,10,22,17,28,0.00
2014,10,22,17,29,0.00
2014,10,22,17,30,0.00
2014,10,22,17,31,0.00
2014,10,22,17,32,0.00
2014,10,22,17,33,0.00
2014,10,22,17,34,0.00
2014,10,22,17,35,0.00
2014,10,22,17,36,0.00
2014,10,22,17,37,0.00
2014,10,22,17,38,0.00
2014,10,22,17,39,0.00
2014,10,22,17,40,0.00
2014,10,22,17,41,0.00
2014,10,22,17,42,0.00
2014,10,22,17,43,0.00
2014,10,22,17,44,0.00
2014,10,22,17,45,0.00
2014,10,22,17,46,0.00
2014,10,22,17,47,0.00
2014,10,22,17,48,0.00
2014,10,22,17,49,0.00
2014,10,22,17,50,0.00
2014,10,22,17,51,0.00
2014,10,22,17,52,2.10
2014,10,22,17,53,1.40
2014,10,22,17,54,2.20
2014,10,22,17,55,2.30
2014,10,22,17,56,1.30
2014,10,22,17,57,0.00